When you browse on this site, cookies collect data to enhance your experience and personalize the content and advertising you see.
Visit our Privacy Policy to learn more. By continuing to use the site, you agree to this use of cookies and data.
  • In Hungary
  • List of Countries
  • For 7 days
  • Water Temperature
  • Satellite Maps
  • Weather Map
  • News
  • Weather Widgets
  • user-avatar
    Login

    Hourly Weather Turnaya

    Today, 15 December, Saturday

    Time Temperature Precipitation Wind Pressure Humidity
    00:00 -2°C° 0 mm 2 mps 757 mmHg 94%
    01:00 -2°C° 0 mm 2 mps 758 mmHg 95%
    02:00 0°C° 0 mm 1 mps 758 mmHg 94%
    03:00 0°C° 0 mm 1 mps 758 mmHg 93%
    04:00 -2°C° 0 mm 2 mps 758 mmHg 93%
    05:00 -2°C° 0 mm 2 mps 758 mmHg 93%
    06:00 -2°C° 0 mm 2 mps 758 mmHg 92%
    07:00 -2°C° 0 mm 2 mps 758 mmHg 92%
    08:00 -2°C° 0 mm 2 mps 758 mmHg 92%
    09:00 -1°C° 0 mm 3 mps 758 mmHg 89%
    10:00 -1°C° 0 mm 3 mps 759 mmHg 87%
    11:00 -1°C° 0 mm 3 mps 759 mmHg 85%
    12:00 -1°C° 0 mm 3 mps 759 mmHg 83%
    13:00 -1°C° 0 mm 3 mps 759 mmHg 82%
    14:00 -1°C° 0 mm 3 mps 759 mmHg 80%
    15:00 -2°C° 0 mm 4 mps 759 mmHg 80%
    16:00 -2°C° 0 mm 4 mps 759 mmHg 81%
    17:00 -2°C° 0 mm 4 mps 759 mmHg 81%
    18:00 -3°C° 0 mm 4 mps 759 mmHg 81%
    19:00 -3°C° 0 mm 4 mps 759 mmHg 80%
    20:00 -4°C° 0 mm 5 mps 759 mmHg 80%
    21:00 -4°C° 0 mm 5 mps 758 mmHg 80%
    22:00 -4°C° 0 mm 5 mps 758 mmHg 80%
    23:00 -4°C° 0 mm 5 mps 758 mmHg 80%

    Tomorrow, 16 December, Sunday

    Time Temperature Precipitation Wind Pressure Humidity
    00:00 -4°C° 0 mm 5 mps 758 mmHg 80%
    01:00 -4°C° 0 mm 5 mps 758 mmHg 80%
    02:00 -4°C° 0 mm 6 mps 757 mmHg 80%
    03:00 -4°C° 0.1 mm 6 mps 757 mmHg 80%
    04:00 -4°C° 0.1 mm 6 mps 756 mmHg 80%
    05:00 -4°C° 0.1 mm 6 mps 756 mmHg 80%
    06:00 -6°C° 0.2 mm 7 mps 756 mmHg 80%
    07:00 -6°C° 0.2 mm 7 mps 756 mmHg 81%
    08:00 -6°C° 0.2 mm 7 mps 755 mmHg 81%
    09:00 -6°C° 0.2 mm 7 mps 755 mmHg 82%
    10:00 -6°C° 0.2 mm 7 mps 755 mmHg 82%
    11:00 -6°C° 0.2 mm 8 mps 755 mmHg 82%
    12:00 -6°C° 0.3 mm 8 mps 755 mmHg 83%
    13:00 -6°C° 0.3 mm 8 mps 754 mmHg 85%
    14:00 -6°C° 0.3 mm 8 mps 754 mmHg 86%
    15:00 -6°C° 0.5 mm 7 mps 754 mmHg 86%
    16:00 -6°C° 0.5 mm 7 mps 754 mmHg 87%
    17:00 -7°C° 0.5 mm 7 mps 753 mmHg 88%
    18:00 -7°C° 0.8 mm 7 mps 753 mmHg 89%
    19:00 -6°C° 0.8 mm 7 mps 754 mmHg 90%
    20:00 -5°C° 0.8 mm 6 mps 754 mmHg 91%
    21:00 -5°C° 0.6 mm 6 mps 754 mmHg 91%
    22:00 -5°C° 0.6 mm 6 mps 753 mmHg 92%
    23:00 -5°C° 0.6 mm 6 mps 753 mmHg 92%

    Day after tomorrow, 17 December, Monday

    Time Temperature Precipitation Wind Pressure Humidity
    00:00 -5°C° 0.5 mm 5 mps 753 mmHg 92%
    01:00 -5°C° 0.5 mm 5 mps 753 mmHg 92%
    02:00 -5°C° 0.5 mm 5 mps 753 mmHg 93%
    03:00 -5°C° 0.3 mm 5 mps 753 mmHg 93%
    04:00 -4°C° 0.3 mm 4 mps 753 mmHg 93%
    05:00 -4°C° 0.3 mm 4 mps 752 mmHg 94%
    06:00 -4°C° 0.2 mm 4 mps 753 mmHg 94%
    07:00 -4°C° 0.2 mm 4 mps 753 mmHg 94%
    08:00 -4°C° 0.2 mm 4 mps 753 mmHg 94%
    09:00 -2°C° 0.1 mm 3 mps 753 mmHg 94%
    10:00 -2°C° 0.1 mm 3 mps 753 mmHg 94%
    11:00 -2°C° 0.1 mm 3 mps 753 mmHg 95%
    12:00 -2°C° 0 mm 3 mps 753 mmHg 95%
    13:00 -1°C° 0 mm 2 mps 753 mmHg 95%
    14:00 -1°C° 0 mm 2 mps 753 mmHg 95%
    15:00 -1°C° 0 mm 2 mps 754 mmHg 95%
    16:00 -2°C° 0 mm 2 mps 754 mmHg 95%
    17:00 -2°C° 0 mm 2 mps 754 mmHg 95%
    18:00 -2°C° 0 mm 2 mps 755 mmHg 95%
    19:00 -3°C° 0 mm 2 mps 755 mmHg 96%
    20:00 -1°C° 0 mm 1 mps 755 mmHg 96%
    21:00 -1°C° 0 mm 1 mps 756 mmHg 95%
    22:00 -1°C° 0 mm 1 mps 756 mmHg 95%
    23:00 -1°C° 0 mm 1 mps 756 mmHg 95%

    18 December, Tuesday

    Time Temperature Precipitation Wind Pressure Humidity
    00:00 -2°C° 0 mm 1 mps 756 mmHg 95%
    01:00 -2°C° 0 mm 1 mps 757 mmHg 95%
    02:00 -2°C° 0 mm 1 mps 757 mmHg 95%
    03:00 -2°C° 0 mm 1 mps 757 mmHg 95%
    04:00 -2°C° 0 mm 1 mps 757 mmHg 95%
    05:00 -2°C° 0 mm 1 mps 757 mmHg 95%
    06:00 -2°C° 0 mm 1 mps 757 mmHg 95%
    07:00 -3°C° 0 mm 1 mps 758 mmHg 95%
    08:00 -3°C° 0 mm 1 mps 758 mmHg 94%
    09:00 -2°C° 0 mm 1 mps 758 mmHg 94%
    10:00 -2°C° 0 mm 1 mps 758 mmHg 94%
    11:00 -1°C° 0 mm 1 mps 758 mmHg 93%
    12:00 -1°C° 0 mm 1 mps 758 mmHg 93%
    13:00 -1°C° 0 mm 1 mps 758 mmHg 93%
    14:00 0°C° 0 mm 1 mps 758 mmHg 92%
    15:00 -1°C° 0 mm 1 mps 758 mmHg 93%
    16:00 -3°C° 0 mm 2 mps 759 mmHg 94%
    17:00 -4°C° 0 mm 2 mps 759 mmHg 94%
    18:00 -4°C° 0 mm 2 mps 759 mmHg 94%
    19:00 -4°C° 0 mm 2 mps 759 mmHg 93%
    20:00 -4°C° 0 mm 2 mps 759 mmHg 93%
    21:00 -4°C° 0 mm 2 mps 759 mmHg 92%
    22:00 -4°C° 0 mm 2 mps 759 mmHg 92%
    23:00 -4°C° 0 mm 2 mps 759 mmHg 92%

    19 December, Wednesday

    Time Temperature Precipitation Wind Pressure Humidity
    00:00 -4°C° 0 mm 2 mps 759 mmHg 93%
    01:00 -5°C° 0 mm 2 mps 759 mmHg 93%
    02:00 -5°C° 0 mm 2 mps 759 mmHg 94%
    03:00 -5°C° 0 mm 2 mps 759 mmHg 95%
    04:00 -5°C° 0 mm 2 mps 759 mmHg 95%
    05:00 -6°C° 0 mm 2 mps 759 mmHg 95%
    06:00 -5°C° 0 mm 2 mps 759 mmHg 95%
    07:00 -5°C° 0 mm 2 mps 759 mmHg 95%
    08:00 -5°C° 0 mm 2 mps 760 mmHg 94%
    09:00 -5°C° 0 mm 2 mps 760 mmHg 93%
    10:00 -6°C° 0 mm 3 mps 760 mmHg 92%
    11:00 -6°C° 0 mm 3 mps 760 mmHg 91%
    12:00 -6°C° 0 mm 3 mps 760 mmHg 91%
    13:00 -6°C° 0 mm 3 mps 760 mmHg 90%
    14:00 -5°C° 0 mm 2 mps 759 mmHg 89%
    15:00 -7°C° 0 mm 3 mps 760 mmHg 90%
    16:00 -7°C° 0 mm 3 mps 760 mmHg 90%
    17:00 -7°C° 0 mm 3 mps 760 mmHg 90%
    18:00 -8°C° 0 mm 3 mps 760 mmHg 91%
    19:00 -8°C° 0 mm 3 mps 760 mmHg 91%
    20:00 -9°C° 0 mm 3 mps 760 mmHg 92%
    21:00 -9°C° 0 mm 3 mps 760 mmHg 92%
    22:00 -9°C° 0 mm 3 mps 760 mmHg 92%
    23:00 -10°C° 0 mm 3 mps 760 mmHg 92%

    20 December, Thursday

    Time Temperature Precipitation Wind Pressure Humidity
    00:00 -10°C° 0 mm 3 mps 760 mmHg 92%
    01:00 -10°C° 0 mm 3 mps 760 mmHg 93%
    02:00 -10°C° 0 mm 3 mps 760 mmHg 93%
    03:00 -12°C° 0 mm 3 mps 760 mmHg 93%
    04:00 -12°C° 0 mm 3 mps 760 mmHg 93%
    05:00 -13°C° 0 mm 3 mps 760 mmHg 94%
    06:00 -13°C° 0 mm 3 mps 760 mmHg 94%
    07:00 -13°C° 0 mm 3 mps 760 mmHg 94%
    08:00 -14°C° 0 mm 4 mps 760 mmHg 94%
    09:00 -14°C° 0 mm 4 mps 760 mmHg 93%
    10:00 -14°C° 0 mm 4 mps 760 mmHg 92%
    11:00 -14°C° 0 mm 4 mps 760 mmHg 92%
    12:00 -13°C° 0 mm 3 mps 760 mmHg 91%
    13:00 -12°C° 0 mm 3 mps 760 mmHg 90%
    14:00 -12°C° 0 mm 3 mps 760 mmHg 90%
    15:00 -12°C° 0 mm 3 mps 760 mmHg 90%
    16:00 -12°C° 0 mm 3 mps 760 mmHg 90%
    17:00 -13°C° 0 mm 3 mps 760 mmHg 90%
    18:00 -13°C° 0 mm 3 mps 760 mmHg 90%
    19:00 -13°C° 0 mm 3 mps 760 mmHg 91%
    20:00 -13°C° 0 mm 3 mps 760 mmHg 91%
    21:00 -12°C° 0 mm 3 mps 760 mmHg 91%
    22:00 -12°C° 0 mm 3 mps 760 mmHg 91%
    23:00 -12°C° 0 mm 3 mps 761 mmHg 92%
    Show more